This is the latest recevied weather packets stored in our database for station/object 4S6DRJ-13. If no packets are shown the sender has not sent any weather packets the latest 10 day(s).
| Time | Temp. | Humidity | Pressure | Rain* | Wind** | Luminosity | Snow |
|---|---|---|---|---|---|---|---|
| 1788421135 | 31.11° C | 68% | 1008.4 hPa | 0 mm | 2.68 m/s, 263° | 1135 W/m² | - |
| 1788421074 | 31.11° C | 70% | 1008.4 hPa | 0 mm | 3.58 m/s, 201° | 1136 W/m² | - |
| 1788421013 | 31.11° C | 72% | 1008.4 hPa | 0 mm | 1.79 m/s, 292° | 1111 W/m² | - |
| 1788420952 | 31.11° C | 71% | 1008.4 hPa | 0 mm | 0.89 m/s, 262° | 609 W/m² | - |
| 1788420891 | 31.11° C | 70% | 1008.5 hPa | 0 mm | 1.79 m/s, 288° | 530 W/m² | - |
| 1788420830 | 31.11° C | 69% | 1008.5 hPa | 0 mm | 2.24 m/s, 259° | 1119 W/m² | - |
| 1788420769 | 31.11° C | 70% | 1008.6 hPa | 0 mm | 2.24 m/s, 229° | 1136 W/m² | - |
| 1788420708 | 31.11° C | 69% | 1008.5 hPa | 0 mm | 1.34 m/s, 307° | 444 W/m² | - |
| 1788420647 | 31.11° C | 69% | 1008.5 hPa | 0 mm | 1.79 m/s, 274° | 384 W/m² | - |
| 1788420586 | 31.11° C | 70% | 1008.4 hPa | 0 mm | 2.68 m/s, 242° | 369 W/m² | - |
| 1788420525 | 31.67° C | 69% | 1008.6 hPa | 0 mm | 3.58 m/s, 326° | 1116 W/m² | - |
| 1788420464 | 31.67° C | 68% | 1008.5 hPa | 0 mm | 1.79 m/s, 189° | 1125 W/m² | - |
| 1788420404 | 31.11° C | 69% | 1008.5 hPa | 0 mm | 1.79 m/s, 237° | 1128 W/m² | - |
| 1788420342 | 31.11° C | 69% | 1008.6 hPa | 0 mm | 1.79 m/s, 227° | 1129 W/m² | - |
| 1788420281 | 31.11° C | 69% | 1008.5 hPa | 0 mm | 4.02 m/s, 316° | 1131 W/m² | - |
| 1788420220 | 31.67° C | 69% | 1008.5 hPa | 0 mm | 1.79 m/s, 267° | 1124 W/m² | - |
| 1788420159 | 31.67° C | 68% | 1008.7 hPa | 0 mm | 1.79 m/s, 288° | 1128 W/m² | - |
| 1788420098 | 31.67° C | 67% | 1008.7 hPa | 0 mm | 5.36 m/s, 270° | 1116 W/m² | - |
| 1788420037 | 31.67° C | 69% | 1008.7 hPa | 0 mm | 1.79 m/s, 252° | 345 W/m² | - |
| 1788419976 | 31.67° C | 69% | 1008.7 hPa | 0 mm | 3.58 m/s, 334° | 1133 W/m² | - |
| 1788419914 | 31.67° C | 70% | 1008.7 hPa | 0 mm | 1.79 m/s, 199° | 932 W/m² | - |
| 1788419854 | 31.67° C | 71% | 1008.9 hPa | 0 mm | 0.89 m/s, 288° | 1128 W/m² | - |
| 1788419792 | 31.11° C | 71% | 1008.7 hPa | 0 mm | 1.34 m/s, 275° | 1126 W/m² | - |
| 1788419732 | 31.11° C | 71% | 1008.9 hPa | 0 mm | 1.79 m/s, 279° | 1130 W/m² | - |
| 1788419671 | 31.11° C | 70% | 1008.8 hPa | 0 mm | 2.24 m/s, 236° | 1128 W/m² | - |
* Rain latest hour (hover to see other rain measurements)
** Current wind speed in m/s (hover to see current wind gust speed)